NOAA NWS Hourly Roundups by Site

Regional Weather Roundup for Seattle, WA

To Select Another Site Choose from List

Select Site:  

000
ASUS46 KSEW 141120
RWRWA

WASHINGTON REGIONAL WEATHER ROUNDUP
NATIONAL WEATHER SERVICE SEATTLE WA
400 AM PDT SUN APR 14 2024

NOTE:"FAIR" INDICATES FEW OR NO CLOUDS BELOW 12,000 FEET WITH NO
SIGNIFICANT WEATHER AND/OR OBSTRUCTIONS TO VISIBILITY.

WAZ507-509-555>559-141200-
SEATTLE, TACOMA, EVERETT, AND VICINITY

CITY           SKY/WX    TMP DP  RH WIND       PRES   REMARKS
EVERETT        CLEAR     47  40  76 N3        29.95S TC   8
BOEING FIELD   CLEAR     45  41  86 CALM      29.95S TC   7
RENTON         CLEAR     45  42  89 CALM      29.95S TC   7
SEATAC AIRPORT CLEAR     47  38  71 NE8       29.94S TC   8
JBLM-MCCHORD   FOG       39  37  93 S3        29.94R VSB 1   TC   4
PUYALLUP       DRIZZLE   41  41 100 CALM      29.94S TC   5
BREMERTON      CLEAR     37  37 100 CALM      29.95R TC   3
JBLM-FT LEWIS  CLEAR     43  40  90 CALM      29.92R TC   6
TACOMA NARROWS CLEAR     43  39  86 CALM      29.95R TC   6
$$

WAZ001-503-506-510-514-515-141200-
NORTH INTERIOR

CITY           SKY/WX    TMP DP  RH WIND       PRES   REMARKS
BELLINGHAM     PTCLDY    40  38  93 CALM      29.97R TC   4
FRIDAY HARBOR  PTCLDY    43  39  86 CALM      29.98R TC   6
EASTSOUND      PTCLDY    41  39  93 CALM      29.97R TC   5
PORT ANGELES   CLEAR     44  37  76 SW8       29.97S TC   7
EDIZ HOOK      NOT AVBL
PORT TOWNSEND  CLEAR     34  34 100 CALM      29.96R TC   1
NAS WHIDBEY    PTCLDY    40  39  97 CALM      29.97S TC   4
ARLINGTON      CLEAR     37  36  96 NW3       29.97S TC   3
BURLINGTON     CLEAR     39  39 100 CALM      29.97S TC   4
$$

WAZ020-022-039-040-504-511-512-141200-
SOUTHWEST INTERIOR

CITY           SKY/WX    TMP DP  RH WIND       PRES   REMARKS
SHELTON        CLEAR     42  40  92 CALM      29.93R TC   6
OLYMPIA        CLEAR     38  37  97 CALM      29.95R FOG     TC   3
CHEHALIS       PTCLDY    41  41 100 CALM      29.96R TC   5
KELSO          PTCLDY    47  44  90 N3        29.95R TC   8
VANCOUVER      MOCLDY    52  46  80 CALM      29.94R TC  11
SCAPPOOSE, OR  MOCLDY    54  45  71 N3        29.91R TC  12
PORTLAND, OR   MOCLDY    53  45  74 CALM      29.92R TC  12
$$

WAZ021-516-517-141200-
WASHINGTON COAST

CITY           SKY/WX    TMP DP  RH WIND       PRES   REMARKS
FORKS          CLOUDY    45  41  86 CALM      29.98R FOG     TC   7
HOQUIAM        CLEAR     41  40  96 NE3       29.97R TC   5
ASTORIA, OR    CLOUDY    50  46  86 NW9       29.98R TC  10
$$

WAZ019-023-024-040-567>569-141200-
CASCADE MOUNTAINS AND COLUMBIA GORGE

CITY           SKY/WX    TMP DP  RH WIND       PRES   REMARKS
STAMPEDE PASS  FOG       41  40  96 SW6       29.92S VSB 1/4 TC   5
TROUTDALE, OR  NOT AVBL
HOOD RIVER, OR NOT AVBL
THE DALLES, OR MOCLDY    58  47  66 NW17G25   29.82R TC  14
$$

WAZ026-027-041>044-520-521-141200-
EAST SLOPES

CITY           SKY/WX    TMP DP  RH WIND       PRES   REMARKS
OMAK           CLEAR     49  39  68 N14       29.86R TC   9
WENATCHEE      PTCLDY    55  41  59 NW13      29.83S TC  13
ELLENSBURG     PTCLDY    54  40  59 NW14      29.84R TC  12
YAKIMA         MOCLDY    57  41  55 N6        29.82S TC  14
SUNNYSIDE ARPT MOCLDY    49  46  89 CALM      29.81R TC   9
YAKIMA TC      PTCLDY    55  41  60 E9        29.78S TC  13
$$

WAZ028-034-035-141200-
COLUMBIA BASIN

CITY           SKY/WX    TMP DP  RH WIND       PRES   REMARKS
EPHRATA        PTCLDY    55  40  56 N7        29.81S TC  13
MOSES LAKE     PTCLDY    46  43  89 N8        29.81S TC   8
PASCO          PTCLDY    47  44  90 N5        29.80R TC   8
RICHLAND ARPT  PTCLDY    48  47  94 CALM      29.80S TC   9
HERMISTON, OR  PTCLDY    46  42  86 S5        29.80S TC   8
$$

WAZ036>038-141200-
NORTHEAST WASHINGTON

CITY           SKY/WX    TMP DP  RH WIND       PRES   REMARKS
SPOKANE GEIGER PTCLDY    50  42  74 E5        29.83R TC  10
SPOKANE FELTS  PTCLDY    47  44  90 CALM      29.83S TC   8
FAIRCHILD AFB  PTCLDY    48  40  76 E3        29.81S TC   9
COEURDALENE,ID PTCLDY    46  42  86 NE7       29.85R TC   8
DEER PARK      PTCLDY    41  37  86 CALM      29.84R TC   5
$$

WAZ029>033-141200-
SOUTHEAST WASHINGTON

CITY           SKY/WX    TMP DP  RH WIND       PRES   REMARKS
PULLMAN        PTCLDY    43  39  86 CALM      29.81S TC   6
LEWISTON, ID   CLEAR     52  44  74 CALM      29.79R TC  11
WALLA WALLA    PTCLDY    52  46  80 S5        29.80R TC  11
PENDLETON, OR  PTCLDY    49  45  86 SE6       29.81R TC   9
$$


 

View Past Reports for Seattle, WA.

Products Courtesy of NOAA-NWS
NWS Information Parsing Script by Ken True at Saratoga Weather - Script by SE Lincoln Weather.